Weather History for Kirksville, MO

Change the Weather History Date:

Sunday, October 6, 2013

  Actual Average Record
Temperature  
Mean Temperature 45 °F 56 °F  
Max Temperature 50 °F 68 °F 91 °F (1963)
Min Temperature 39 °F 45 °F 24 °F (1935)
Degree Days  
Heating Degree Days 20 9  
Month to date heating degree days 26 51  
Since 1 July heating degree days 96 158  
Cooling Degree Days 0 1  
Month to date cooling degree days 32 6  
Year to date cooling degree days 1028 933  
Moisture  
Dew Point 42 °F    
Average Humidity 82    
Maximum Humidity 93    
Minimum Humidity 71    
Precipitation  
Precipitation 0.08 in 0.09 in 1.87 in (1951)
Month to date precipitation 0.39 0.67  
Year to date precipitation 31.97 32.19  
Sea Level Pressure  
Sea Level Pressure 29.86 in    
Wind  
Wind Speed 9 mph (West)    
Max Wind Speed 18 mph    
Max Gust Speed 25 mph    
Visibility 9 miles    
Events Rain    
T = Trace of Precipitation, MM = Missing Value Source: NWS Daily Summary

Daily Weather History Graph

Daily Weather History Graph

Search for Another Location

Airport:

Trip Planner

Search our weather history database for the weather conditions in past years. The results will help you decide how hot, cold, wet, or windy it might be!

Date:

Astronomy

Oct. 06, 2013 Rise Set
Actual Time 7:11 AM CDT 6:43 PM CDT
Civil Twilight 6:44 AM CDT 7:11 PM CDT
Nautical Twilight 6:13 AM CDT 7:42 PM CDT
Astronomical Twilight 5:41 AM CDT 8:13 PM CDT
Moon 8:56 AM CDT (10/6) 7:43 PM CDT (10/6)
Length of Visible Light 12h 26m
Length of Day
11h 32m
Waxing Crescent, 3% of the Moon is Illuminated
Oct 6
Waxing Crescent
Oct 11
First Quarter
Oct 18
Full
Oct 26
Last Quarter
Nov 3
New

Hourly Weather History & Observations

Time (CDT) Temp. Windchill Dew Point Humidity Pressure Visibility Wind Dir Wind Speed Gust Speed Precip Events Conditions
12:55 AM 44.1 °F 42.5 °F 37.9 °F 79% 29.87 in 10.0 mi SW 3.5 mph - N/A   Clear
1:55 AM 43.0 °F 41.3 °F 36.0 °F 76% 29.86 in 10.0 mi WSW 3.5 mph - N/A   Clear
2:55 AM 43.0 °F 40.3 °F 35.1 °F 74% 29.84 in 10.0 mi West 4.6 mph - N/A   Clear
3:55 AM 39.9 °F - 35.1 °F 83% 29.84 in 10.0 mi Calm Calm - N/A   Clear
4:55 AM 39.9 °F 35.8 °F 35.1 °F 83% 29.83 in 10.0 mi SW 5.8 mph - N/A   Clear
5:55 AM 39.9 °F 36.7 °F 34.0 °F 79% 29.83 in 10.0 mi WSW 4.6 mph - N/A   Clear
6:55 AM 39.9 °F 36.7 °F 36.0 °F 86% 29.83 in 10.0 mi WSW 4.6 mph - N/A   Mostly Cloudy
7:55 AM 41.0 °F 37.1 °F 37.0 °F 86% 29.83 in 10.0 mi SW 5.8 mph - N/A   Overcast
8:23 AM 42.8 °F 38.6 °F 37.4 °F 81% 29.82 in 10.0 mi SW 6.9 mph - N/A   Overcast
8:34 AM 42.8 °F 38.0 °F 37.4 °F 81% 29.82 in 10.0 mi SW 8.1 mph - N/A   Overcast
8:55 AM 44.1 °F 40.1 °F 37.9 °F 79% 29.84 in 10.0 mi SW 6.9 mph - N/A   Overcast
9:55 AM 46.9 °F - 39.0 °F 74% 29.84 in 10.0 mi SW 11.5 mph 17.3 mph N/A   Overcast
10:55 AM 48.0 °F - 39.0 °F 71% 29.85 in 10.0 mi WSW 8.1 mph 21.9 mph N/A   Overcast
11:48 AM 48.2 °F - 41.0 °F 76% 29.83 in 10.0 mi West 10.4 mph 18.4 mph N/A   Mostly Cloudy
11:55 AM 48.9 °F - 41.0 °F 74% 29.85 in 10.0 mi West 11.5 mph 18.4 mph N/A   Mostly Cloudy
12:24 PM 48.2 °F - 41.0 °F 76% 29.83 in 8.0 mi West 17.3 mph 25.3 mph 0.00 in   Overcast
12:48 PM 46.4 °F 41.1 °F 42.8 °F 87% 29.84 in 10.0 mi West 11.5 mph - 0.00 in Rain Light Rain
12:55 PM 48.0 °F - 43.0 °F 83% 29.86 in 10.0 mi West 11.5 mph 23.0 mph 0.00 in   Overcast
1:05 PM 48.2 °F - 41.0 °F 76% 29.83 in 10.0 mi West 13.8 mph 23.0 mph N/A   Overcast
1:12 PM 48.2 °F - 41.0 °F 76% 29.83 in 10.0 mi West 9.2 mph 21.9 mph N/A   Overcast
1:26 PM 48.2 °F - 42.8 °F 82% 29.83 in 10.0 mi West 13.8 mph 19.6 mph N/A   Overcast
1:55 PM 48.0 °F - 41.0 °F 77% 29.85 in 10.0 mi West 12.7 mph 21.9 mph 0.00 in Rain Light Rain
2:55 PM 46.9 °F - 42.1 °F 83% 29.85 in 10.0 mi West 10.4 mph - 0.00 in Rain Light Rain
3:11 PM 46.4 °F 41.9 °F 42.8 °F 87% 29.83 in 10.0 mi West 9.2 mph - 0.00 in Rain Light Rain
3:40 PM 48.2 °F - 44.6 °F 87% 29.83 in 10.0 mi West 8.1 mph - 0.01 in Rain Light Rain
3:55 PM 48.0 °F - 45.0 °F 89% 29.85 in 10.0 mi WSW 8.1 mph - 0.01 in Rain Light Rain
4:29 PM 48.2 °F - 44.6 °F 87% 29.83 in 10.0 mi WSW 6.9 mph - 0.00 in Rain Light Rain
4:55 PM 48.9 °F - 46.0 °F 90% 29.86 in 7.0 mi WSW 10.4 mph - 0.01 in Rain Light Rain
5:55 PM 48.9 °F - 46.9 °F 93% 29.86 in 6.0 mi WSW 8.1 mph - 0.04 in Rain Light Rain
6:03 PM 48.2 °F - 46.4 °F 93% 29.83 in 5.0 mi WSW 10.4 mph - 0.00 in Rain Light Rain
6:16 PM 48.2 °F - 46.4 °F 93% 29.84 in 2.5 mi West 13.8 mph 21.9 mph 0.00 in Rain Light Rain
6:25 PM 48.2 °F - 46.4 °F 93% 29.84 in 6.0 mi West 16.1 mph 21.9 mph 0.01 in Rain Light Rain
6:36 PM 48.2 °F - 46.4 °F 93% 29.85 in 10.0 mi West 11.5 mph 24.2 mph 0.01 in Rain Light Rain
6:55 PM 48.9 °F - 46.0 °F 90% 29.87 in 10.0 mi West 12.7 mph 21.9 mph 0.02 in   Overcast
7:32 PM 48.2 °F - 46.4 °F 93% 29.85 in 7.0 mi West 15.0 mph - N/A   Overcast
7:55 PM 48.0 °F - 46.0 °F 93% 29.88 in 10.0 mi West 12.7 mph 21.9 mph N/A   Overcast
8:03 PM 48.2 °F - 46.4 °F 93% 29.86 in 10.0 mi West 12.7 mph 20.7 mph N/A   Overcast
8:38 PM 48.2 °F - 46.4 °F 93% 29.87 in 10.0 mi West 12.7 mph 21.9 mph N/A   Overcast
8:55 PM 48.9 °F - 46.0 °F 90% 29.89 in 10.0 mi West 12.7 mph 19.6 mph N/A   Overcast
9:08 PM 48.2 °F - 46.4 °F 93% 29.88 in 9.0 mi WNW 11.5 mph 24.2 mph N/A   Overcast
9:55 PM 48.9 °F - 46.0 °F 90% 29.91 in 10.0 mi WNW 12.7 mph 19.6 mph N/A   Overcast
10:55 PM 48.9 °F - 46.0 °F 90% 29.93 in 10.0 mi WNW 11.5 mph 19.6 mph N/A   Overcast
11:04 PM 48.2 °F - 46.4 °F 93% 29.91 in 10.0 mi WNW 11.5 mph 21.9 mph N/A   Overcast
11:32 PM 48.2 °F - 46.4 °F 93% 29.92 in 10.0 mi NW 16.1 mph 20.7 mph N/A   Overcast
11:42 PM 48.2 °F - 44.6 °F 87% 29.92 in 10.0 mi WNW 10.4 mph 23.0 mph N/A   Overcast
11:55 PM 48.9 °F - 45.0 °F 86% 29.94 in 10.0 mi NW 11.5 mph - N/A   Overcast